Header for Extended Forecast Station List Page

Search by: ID | Name | Date | Parm | Value | Avg | % Avg
Sort by: ID | Name | Date | Parm | Value | Avg | % Avg

Enter search or view all records.

Click on id for station plot
#IDNameDateParmValueAvg% Avg
0ABOM8CLARK FORK-ABOVE MISSOULA06-17-2024DISCHARGE (KAF)29453955
1AFRI1SNAKE-AMERICAN FALLS RESERVOIR06-17-2024INFLOW (KAF)1160124493
2ALFW1PEND OREILLE-ALBENI FALLS DAM06-17-2024INFLOW (KAF)3622444781
3ALPW4SNAKE-NEAR ALPINE06-17-2024DISCHARGE (KAF)13671336102
4ANAW1SNAKE-NEAR ANATONE06-17-2024DISCHARGE (KAF)4776549187
5ANTI1HENRYS FORK-AT ST. ANTHONY06-17-2024DISCHARGE (KAF)17732255
6ARAI1SF BOISE-ANDERSON RANCH DAM06-17-2024INFLOW (KAF)8010675
7ARDW1ENTIAT-NEAR ARDENVOIR06-17-2024DISCHARGE (KAF)537373
8BELM8CLARK FORK-BELOW MISSOULA06-17-2024DISCHARGE (KAF)59396861
9BERO3MALHEUR-AGENCY VALLEY DAM06-17-2024INFLOW (KAF)81367
10BFEI1KOOTENAI-AT BONNERS FERRY06-17-2024STAGE (FT)MMM
11BFTI1SNAKE-NEAR BLACKFOOT06-17-2024DISCHARGE (KAF)61370887
12BIGI1BOISE-AT GLENWOOD BRIDGE06-17-2024DISCHARGE (KAF)13021062
13BITM8BITTERROOT-NEAR MISSOULA06-17-2024DISCHARGE (KAF)29941073
14BONM8BLACKFOOT-NEAR BONNER06-17-2024DISCHARGE (KAF)13326650
15BONO3COLUMBIA-BONNEVILLE DAM06-17-2024INFLOW (KAF)294743629681
16BRNI1SNAKE-BROWNLEE DAM06-17-2024INFLOW (KAF)26522645100
17BUDW1BUMPING-BUMPING LAKE DAM06-17-2024INFLOW (KAF)223367
18BULO3BULLY CREEK-BULLY CREEK DAM06-17-2024INFLOW (KAF)MMM
19CABI1CLARK FORK-CABINET GORGE DAM06-17-2024INFLOW (KAF)3385438177
20CFMM8FLATHEAD-AT COLUMBIA FALLS06-17-2024DISCHARGE (KAF)1679191688
21CHDW1CHELAN-LAKE CHELAN DAM06-17-2024INFLOW (KAF)21342950
22CHEI1FALL RIVER-NEAR CHESTER06-17-2024DISCHARGE (KAF)7711766
23CHJW1COLUMBIA-CHIEF JOSEPH DAM06-17-2024INFLOW (KAF)192532365681
24CIBW1COLUMBIA-AT INTL BOUNDARY06-17-2024DISCHARGE (KAF)194782472179
25CLFW1NACHES-NEAR CLIFFDEL06-17-2024DISCHARGE (KAF)8112366
26CLUW1CLE ELUM-CLE ELUM LAKE06-17-2024INFLOW (KAF)7811966
27COEI1COEUR D ALENE-COEUR D ALENE LAKE06-17-2024INFLOW (KAF)28132586
28CSDI1NF PAYETTE-CASCADE DAM06-17-2024INFLOW (KAF)9088102
29DEDI1DEADWOOD-NEAR LOWMAN06-17-2024INFLOW (KAF)243275
30DLGM8CLARK FORK-AT DEER LODGE06-17-2024DISCHARGE (KAF)174240
31DRMM8CLARK FORK-NR DRUMMOND06-17-2024DISCHARGE (KAF)7412260
32DWRI1NF CLEARWATER-DWORSHAK DAM06-17-2024INFLOW (KAF)36751571
33EASW1YAKIMA-AT EASTON06-17-2024DISCHARGE (KAF)497664
34EMMI1PAYETTE-NEAR EMMETT06-17-2024DISCHARGE (KAF)40842097
35FCFM8NF FLATHEAD-NEAR COLUMBIA FALLS06-17-2024DISCHARGE (KAF)43056976
36GCDW1COLUMBIA-GRAND COULEE DAM06-17-2024INFLOW (KAF)204562365286
37GIBO3UMATILLA-NEAR GIBBON06-17-2024DISCHARGE (KAF)121397
38HALI1BIG WOOD-AT HAILEY06-17-2024DISCHARGE (KAF)798197
39HEII1SNAKE-NEAR HEISE06-17-2024DISCHARGE (KAF)2218239393
40HHWM8SF FLATHEAD-HUNGRY HORSE DAM06-17-2024INFLOW (KAF)37852872
41HODO3HOOD-NEAR TUCKER BRIDGE06-17-2024DISCHARGE (KAF)9794103
42HOPI1PEND OREILLE-LAKE PEND OREILLE NR HOPE06-17-2024LAKE ELEVATION (FT)MMM
43HOTI1BRUNEAU-NEAR HOT SPRINGS06-17-2024DISCHARGE (KAF)4334125
44HWRI1BIG LOST-AT HOWELL RANCH NEAR CHILLY06-17-2024DISCHARGE (KAF)606986
45IHDW1SNAKE-ICE HARBOR DAM06-17-2024INFLOW (KAF)7218836186
46IPDI1HENRYS FORK-ISLAND PARK DAM06-17-2024INFLOW (KAF)11513982
47JDAO3COLUMBIA-JOHN DAY DAM06-17-2024INFLOW (KAF)285203484382
48JKSW4SNAKE-NEAR JACKSON06-17-2024DISCHARGE (KAF)11561128103
49JLKW4SNAKE-JACKSON LAKE AT DAM06-17-2024INFLOW (KAF)23926889
50KADW1KACHESS-KACHESS DAM06-17-2024INFLOW (KAF)192771
51KEDW1YAKIMA-KEECHELUS LAKE06-17-2024INFLOW (KAF)243180
52KERM8FLATHEAD-SELI’Š KSANKA QLISPE’ DAM06-17-2024INFLOW (KAF)1845229380
53KIOW1YAKIMA-AT KIONA06-17-2024DISCHARGE (KAF)30138379
54LAUW1KETTLE-AT LAURIER06-17-2024DISCHARGE (KAF)385371104
55LEOI1KOOTENAI-AT LEONIA06-17-2024DISCHARGE (KAF)2059275675
56LGDW1SNAKE-LOWER GRANITE DAM06-17-2024INFLOW (KAF)7206837286
57LGSW1SNAKE-LITTLE GOOSE DAM06-17-2024INFLOW (KAF)7206836086
58LLKW1SPOKANE-AT LONGLAKE06-17-2024INFLOW (KAF)54063885
59LMNW1SNAKE-LOWER MONUMENTAL DAM06-17-2024INFLOW (KAF)7213834986
60LUCI1BOISE-LUCKY PEAK DAM06-17-2024INFLOW (KAF)632627101
61LWRI1LITTLE WOOD-LITTLE WOOD DAM06-17-2024INFLOW (KAF)151788
62LYDM8KOOTENAI-LIBBY DAM06-17-2024INFLOW (KAF)2370284383
63MACI1BIG LOST-MACKAY RESERVOIR NEAR MACKAY06-17-2024INFLOW (KAF)6968101
64MAGI1BIG WOOD-MAGIC DAM06-17-2024INFLOW (KAF)384487
65MCDW1COLUMBIA-MCNARY DAM06-17-2024INFLOW (KAF)280163505580
66MILI1SNAKE-AT MILNER06-17-2024DISCHARGE (KAF)M40M
67MODO3DESCHUTES-AT MOODY NR BIGGS06-17-2024DISCHARGE (KAF)10841087100
68MONO3NF JOHN DAY-AT MONUMENT06-17-2024DISCHARGE (KAF)5553104
69MYKO3MCKAY CREEK-NEAR PILOT ROCK06-17-2024DISCHARGE (KAF)1150
70NACW1NACHES-NEAR NACHES06-17-2024DISCHARGE (KAF)16025463
71NOXM8CLARK FORK-NOXON RAPIDS DAM06-17-2024INFLOW (KAF)3080397677
72ORFI1CLEARWATER-AT OROFINO06-17-2024DISCHARGE (KAF)79897682
73OWYO3OWYHEE-OWYHEE DAM06-17-2024INFLOW (KAF)8166123
74PARI1BOISE-NEAR PARMA06-17-2024DISCHARGE (KAF)14419674
75PARW1YAKIMA-NEAR PARKER06-17-2024DISCHARGE (KAF)2212717
76PATW1METHOW-NEAR PATEROS06-17-2024DISCHARGE (KAF)16426662
77PDTO3UMATILLA-AT PENDLETON06-17-2024DISCHARGE (KAF)101565
78PESW1WENATCHEE-AT PESHASTIN06-17-2024DISCHARGE (KAF)43048389
79PIHI1PORTNEUF-AT POCATELLO06-17-2024DISCHARGE (KAF)3217188
80PITW1KLICKITAT-NEAR PITT06-17-2024DISCHARGE (KAF)20021593
81PLDI1SF SNAKE-PALISADES DAM06-17-2024INFLOW (KAF)18151717106
82PRTI1PRIEST-NEAR PRIEST RIVER06-17-2024DISCHARGE (KAF)201185109
83PRWW1COLUMBIA-PRIEST RAPIDS DAM06-17-2024INFLOW (KAF)203872583579
84RCCM8ROCK CREEK-NEAR CLINTON06-17-2024DISCHARGE (KAF)7510968
85REXI1HENRYS FORK-AT REXBURG06-17-2024DISCHARGE (KAF)26732981
86RIDI1WILLOW CREEK-RIRIE DAM06-17-2024INFLOW (KAF)167239
87RILW1TIETON-RIMROCK LAKE NEAR RIMROCK06-17-2024INFLOW (KAF)779283
88RRHW1COLUMBIA-ROCKY REACH DAM06-17-2024INFLOW (KAF)198842535678
89SATI1ST MARIES-NEAR SANTA06-17-2024DISCHARGE (KAF)182090
90SERO3JOHN DAY-AT SERVICE CK06-17-2024DISCHARGE (KAF)8980110
91SHYI1SNAKE-NEAR SHELLEY06-17-2024DISCHARGE (KAF)1174132888
92SIFI1SNAKE-AB EAGLE ROCK NR IDAHO FALLS06-17-2024DISCHARGE (KAF)1325147390
93SJMI1ST JOE-AT ST MARIES06-17-2024STAGE (FT)MMM
94SNAI1SNAKE-AT BLACKFOOT06-17-2024DISCHARGE (KAF)60774881
95SPDI1CLEARWATER-AT SPALDING06-17-2024DISCHARGE (KAF)2430265891
96SPOW1SPOKANE-AT SPOKANE06-17-2024DISCHARGE (KAF)38848580
97SRGM8CLARK FORK-AT ST REGIS06-17-2024DISCHARGE (KAF)792125363
98STRM8ST. REGIS-NEAR ST. REGIS06-17-2024DISCHARGE (KAF)375172
99SWAI1SNAKE-BELOW SWAN FALLS06-17-2024DISCHARGE (KAF)1610162699
100TCHW1WALLA WALLA-NEAR TOUCHET06-17-2024DISCHARGE (KAF)41132
101TDAO3COLUMBIA-THE DALLES DAM06-17-2024INFLOW (KAF)289913520982
102TEAI1TETON-NEAR ST. ANTHONY06-17-2024DISCHARGE (KAF)250208120
103TNAW1TEANAWAY-BELOW FORKS06-17-2024DISCHARGE (KAF)91372
104TONW1OKANOGAN-NEAR TONASKET06-17-2024DISCHARGE (KAF)23653145
105TRYO3GRANDE RONDE-TROY06-17-2024DISCHARGE (KAF)25431381
106UMAO3UMATILLA-NEAR UMATILLA06-17-2024DISCHARGE (KAF)3526134
107UMTW1YAKIMA-AT UMTANUM06-17-2024DISCHARGE (KAF)56367983
108UNDW1WHITE SALMON-NEAR UNDERWOOD06-17-2024DISCHARGE (KAF)172172100
109WANW1COLUMBIA-WANAPUM DAM06-17-2024INFLOW (KAF)203852574779
110WEII1SNAKE-AT WEISER06-17-2024DISCHARGE (KAF)2490251099
111WELW1COLUMBIA-WELLS DAM06-17-2024INFLOW (KAF)196752465180
112WGCM8MF FLATHEAD-NEAR WEST GLACIER06-17-2024DISCHARGE (KAF)36852171
113WHBI1SALMON-AT WHITEBIRD06-17-2024DISCHARGE (KAF)1609192684
114WRMO3MALHEUR-WARM SPRINGS DAM06-17-2024INFLOW (KAF)3563
115WSRI1WEISER-NEAR WEISER06-17-2024DISCHARGE (KAF)556586